Location: *
(46.4000°N, 12.6667°E)
Time: 17:03:01
(UTC+00:00)

Envisat - Pass Details

Date: 10 December 2021
Orbit: 764 x 766 km, 98.2° (Epoch: 16 January)

Event Time Altitude Azimuth Distance (km) Brightness Sun altitude
Rises 16:25:30 0° 205° (SSW) 3,220 7.0 -10.4°
Reaches altitude 10° 16:28:24 10° 223° (SW) 2,300 6.6 -10.9°
Maximum altitude 16:32:04 20° 269° (W) 1,723 5.8 -11.5°
Drops below altitude 10° 16:35:45 10° 316° (NW) 2,312 5.8 -12.1°
Sets 16:38:41 0° 333° (NNW) 3,244 6.3 -12.5°
